TimeCDT,TemperatureF,Dew PointF,Humidity,Sea Level PressureIn,VisibilityMPH,Wind Direction,Wind SpeedMPH,Gust SpeedMPH,PrecipitationIn,Events,Conditions,WindDirDegrees,DateUTC
12:15 AM,80.2,72.7,78,29.91,10.0,SE,4.6,-,N/A,,Clear,130,2013-07-09 05:15:00
12:35 AM,79.7,72.1,78,29.91,10.0,SE,4.6,-,N/A,,Clear,130,2013-07-09 05:35:00
12:55 AM,79.9,71.6,76,29.91,10.0,SE,5.8,-,N/A,,Clear,140,2013-07-09 05:55:00
1:15 AM,79.9,70.9,74,29.91,10.0,SE,5.8,-,N/A,,Clear,140,2013-07-09 06:15:00
1:35 AM,79.3,70.5,74,29.91,10.0,SE,3.5,-,N/A,,Clear,130,2013-07-09 06:35:00
1:55 AM,80.1,69.6,70,29.91,10.0,SE,3.5,-,N/A,Thunderstorm,Scattered Clouds,130,2013-07-09 06:55:00
2:15 AM,79.3,70.0,73,29.92,4.0,ESE,4.6,-,0.08,Rain,Heavy Rain,120,2013-07-09 07:15:00
2:35 AM,75.6,72.1,89,29.91,10.0,Calm,Calm,-,0.11,Thunderstorm,Overcast,0,2013-07-09 07:35:00
2:55 AM,75.0,72.5,92,29.92,7.0,Calm,Calm,-,0.11,,Overcast,0,2013-07-09 07:55:00
3:15 AM,74.7,73.2,95,29.92,4.0,Calm,Calm,-,N/A,,Mostly Cloudy,0,2013-07-09 08:15:00
3:35 AM,74.8,73.4,95,29.91,7.0,Calm,Calm,-,N/A,,Scattered Clouds,0,2013-07-09 08:35:00
3:55 AM,74.7,73.2,95,29.91,7.0,Calm,Calm,-,N/A,,Clear,0,2013-07-09 08:55:00
4:15 AM,74.3,72.9,95,29.91,5.0,Calm,Calm,-,N/A,,Clear,0,2013-07-09 09:15:00
4:35 AM,74.3,72.7,95,29.90,7.0,ESE,6.9,-,N/A,,Clear,110,2013-07-09 09:35:00
4:55 AM,76.3,71.6,85,29.89,10.0,ESE,4.6,-,N/A,,Clear,110,2013-07-09 09:55:00
5:15 AM,75.6,71.2,86,29.88,10.0,SE,8.1,-,N/A,,Clear,130,2013-07-09 10:15:00
5:35 AM,75.9,71.1,85,29.87,10.0,SE,6.9,-,N/A,,Clear,130,2013-07-09 10:35:00
5:55 AM,76.6,70.7,82,29.88,10.0,SSE,6.9,-,N/A,,Clear,150,2013-07-09 10:55:00
6:15 AM,77.9,69.4,75,29.90,10.0,SSE,6.9,-,N/A,,Clear,150,2013-07-09 11:15:00
6:35 AM,77.4,69.4,76,29.90,10.0,SE,6.9,-,N/A,,Clear,140,2013-07-09 11:35:00
6:55 AM,76.6,70.2,80,29.90,10.0,SE,5.8,-,N/A,,Clear,130,2013-07-09 11:55:00
7:15 AM,76.3,70.9,83,29.90,10.0,ESE,4.6,-,N/A,,Clear,120,2013-07-09 12:15:00
7:35 AM,77.4,71.6,82,29.91,10.0,SSE,5.8,-,N/A,,Clear,150,2013-07-09 12:35:00
7:55 AM,78.3,71.1,78,29.92,10.0,SSE,4.6,-,N/A,,Clear,150,2013-07-09 12:55:00
8:15 AM,79.7,71.4,76,29.93,10.0,Calm,Calm,-,N/A,,Scattered Clouds,0,2013-07-09 13:15:00
8:35 AM,79.7,71.4,76,29.94,10.0,Calm,Calm,-,N/A,,Scattered Clouds,0,2013-07-09 13:35:00
8:55 AM,81.0,72.0,74,29.95,10.0,NNE,4.6,-,N/A,,Clear,30,2013-07-09 13:55:00
9:15 AM,81.5,71.8,72,29.95,10.0,NE,3.5,-,N/A,,Clear,40,2013-07-09 14:15:00
9:35 AM,82.4,71.6,70,29.94,10.0,Calm,Calm,-,N/A,,Clear,0,2013-07-09 14:35:00
9:55 AM,83.5,72.5,69,29.93,10.0,ESE,5.8,-,N/A,,Clear,110,2013-07-09 14:55:00
10:15 AM,83.5,72.1,69,29.92,10.0,SE,6.9,-,N/A,,Clear,130,2013-07-09 15:15:00
10:35 AM,84.4,72.7,68,29.92,10.0,SSE,5.8,-,N/A,,Clear,150,2013-07-09 15:35:00
10:55 AM,84.6,73.4,69,29.92,10.0,South,6.9,-,N/A,,Clear,170,2013-07-09 15:55:00
11:15 AM,85.6,72.9,65,29.91,10.0,SE,8.1,-,N/A,,Clear,140,2013-07-09 16:15:00
11:35 AM,86.4,73.4,65,29.92,10.0,South,6.9,-,N/A,,Clear,170,2013-07-09 16:35:00
11:55 AM,86.0,71.8,62,29.92,10.0,South,3.5,-,N/A,,Clear,190,2013-07-09 16:55:00
12:15 PM,86.7,72.9,63,29.91,10.0,SW,4.6,-,N/A,,Clear,220,2013-07-09 17:15:00
12:35 PM,87.3,73.2,63,29.91,10.0,Calm,Calm,-,N/A,,Clear,0,2013-07-09 17:35:00
12:55 PM,88.0,73.9,63,29.91,10.0,SSW,5.8,-,N/A,,Clear,200,2013-07-09 17:55:00
1:15 PM,88.7,73.6,61,29.90,10.0,SSE,3.5,-,N/A,,Clear,150,2013-07-09 18:15:00
1:35 PM,89.2,73.8,60,29.90,10.0,WSW,5.8,-,N/A,,Clear,250,2013-07-09 18:35:00
1:55 PM,89.2,72.1,57,29.89,10.0,SW,3.5,-,N/A,,Clear,220,2013-07-09 18:55:00
2:15 PM,90.1,72.9,57,29.89,10.0,West,3.5,-,N/A,,Clear,270,2013-07-09 19:15:00
2:35 PM,90.7,73.0,56,29.89,10.0,Calm,Calm,-,N/A,,Clear,0,2013-07-09 19:35:00
2:55 PM,91.4,73.4,55,29.89,10.0,Calm,Calm,-,N/A,,Clear,0,2013-07-09 19:55:00
3:15 PM,92.1,73.6,55,29.89,10.0,Calm,Calm,-,N/A,,Clear,0,2013-07-09 20:15:00
3:35 PM,93.2,71.4,49,29.89,10.0,NW,3.5,-,N/A,,Clear,320,2013-07-09 20:35:00
3:55 PM,93.2,71.2,49,29.89,10.0,NW,3.5,-,N/A,,Clear,310,2013-07-09 20:55:00
4:15 PM,93.4,70.9,48,29.89,10.0,Calm,Calm,-,N/A,,Clear,0,2013-07-09 21:15:00
4:35 PM,93.7,72.1,49,29.89,10.0,WSW,3.5,-,N/A,,Clear,240,2013-07-09 21:35:00
4:55 PM,94.3,71.1,47,29.89,10.0,Calm,Calm,-,N/A,,Clear,0,2013-07-09 21:55:00
5:15 PM,94.3,70.3,46,29.89,10.0,Calm,Calm,-,N/A,,Clear,0,2013-07-09 22:15:00
5:35 PM,94.1,72.1,49,29.89,10.0,NW,3.5,-,N/A,,Scattered Clouds,320,2013-07-09 22:35:00
5:55 PM,93.6,71.6,49,29.89,10.0,NNW,5.8,-,N/A,,Scattered Clouds,330,2013-07-09 22:55:00
6:15 PM,93.2,71.6,49,29.89,10.0,North,4.6,-,N/A,,Clear,360,2013-07-09 23:15:00
6:35 PM,92.7,70.9,49,29.89,10.0,North,3.5,-,N/A,,Clear,360,2013-07-09 23:35:00
6:55 PM,92.3,71.4,50,29.89,10.0,Calm,Calm,-,N/A,,Clear,0,2013-07-09 23:55:00
7:15 PM,91.9,71.1,50,29.89,10.0,NNW,4.6,-,N/A,,Clear,330,2013-07-10 00:15:00
7:35 PM,91.4,71.8,52,29.89,10.0,North,6.9,-,N/A,,Clear,350,2013-07-10 00:35:00
7:55 PM,90.5,72.1,55,29.89,10.0,NNE,3.5,-,N/A,,Clear,20,2013-07-10 00:55:00
8:15 PM,89.8,71.1,54,29.89,10.0,North,3.5,-,N/A,,Clear,10,2013-07-10 01:15:00
8:35 PM,89.6,71.4,55,29.90,10.0,North,8.1,-,N/A,,Clear,350,2013-07-10 01:35:00
8:55 PM,88.0,72.9,61,29.91,10.0,North,3.5,-,N/A,,Clear,360,2013-07-10 01:55:00
9:15 PM,87.3,73.4,63,29.92,10.0,North,3.5,-,N/A,,Clear,360,2013-07-10 02:15:00
9:35 PM,86.9,72.9,63,29.92,10.0,North,4.6,-,N/A,,Clear,10,2013-07-10 02:35:00
9:55 PM,86.0,73.0,65,29.92,10.0,North,3.5,-,N/A,,Clear,360,2013-07-10 02:55:00
10:15 PM,85.5,72.0,64,29.93,10.0,North,4.6,-,N/A,,Clear,360,2013-07-10 03:15:00
10:35 PM,85.1,71.4,63,29.94,10.0,North,5.8,-,N/A,,Clear,360,2013-07-10 03:35:00
10:55 PM,84.2,71.1,65,29.94,10.0,North,5.8,-,N/A,,Clear,360,2013-07-10 03:55:00
11:15 PM,83.3,71.1,66,29.95,10.0,North,8.1,-,N/A,,Clear,350,2013-07-10 04:15:00
11:35 PM,82.9,70.9,67,29.96,10.0,North,6.9,-,N/A,,Clear,360,2013-07-10 04:35:00
11:55 PM,81.9,70.7,69,29.96,10.0,North,5.8,-,N/A,,Clear,350,2013-07-10 04:55:00